Вернуться в каталог

STARLINK-3247

АктивенСвязьVLEO
NORAD 49747·PAYLOAD·🇺🇸 United States

Запущен Dec 2, 2021 с Cape Canaveral Space Force Station

Loading…

Ближайшие Пролёты (ближайшие 24 часа)

TLE

СвежийSource: CelesTrak SupGP

Эпоха: Sep 14, 2026, 21:35 UTC

1 49747C 21115Z   26257.89979167  .00003148  00000+0  17242-3 0  2570
2 49747  53.1633  17.9046 0001056  45.0658 310.9381 15.13712930    19

Отслеживайте STARLINK-3247 в реальном времени с AllMySat

Download on the App Store